Regional Weather Roundup
Issued by NWS Jackson, KY

Home | Current Version | Previous Version | Text Only | Print | Product List | Glossary On
Versions: 1 2 3 4 5 6 7 8 9 10 11 12 13 14 15 16 17 18 19 20 21 22 23 24 25 26 27 28 29 30 31 32 33 34 35 36 37 38 39 40 41 42 43 44 45 46 47 48 49 50
000
ASUS43 KJKL 200905
RWRJKL

EAST KENTUCKY HOURLY WEATHER ROUNDUP
NATIONAL WEATHER SERVICE JACKSON KY
500 AM EDT MON OCT 20 2014

NOTE: "FAIR" INDICATES FEW OR NO CLOUDS BELOW 12,000 FEET WITH
NO SIGNIFICANT WEATHER AND/OR OBSTRUCTIONS TO VISIBILITY.

* THESE REPORTS ARE NOT UNDER NWS QUALITY CONTROL AND MAY NOT
  REPORT WEATHER SUCH AS PRECIPITATION AND FOG.

KYZ079-080-083-085-087-088-110-112-115-119-120-201000
...EASTERN KENTUCKY...

CITY           SKY/WX    TMP DP  RH WIND       PRES   REMARKS
JACKSON        MOCLDY    42  39  89 CALM      30.06R
LONDON         MOCLDY    43  40  89 CALM      30.07S
SOMERSET*      MOCLDY    39  39 100 CALM      30.08S FOG
MONTICELLO*    FOG       43  41  93 CALM      30.09S VSB 3/4
MIDDLESBORO*   CLOUDY    41  41 100 CALM      30.09F
HARLAN APT*    PTSUNNY   41  41 100 CALM      30.08S
BLACK MTN*       N/A     45  34  65 S10         N/A
PIKEVILLE APT* CLEAR     41  39  93 SE3       30.06S
BIG SANDY*     PTSUNNY   41  40  99 SE3       30.06S
MOREHEAD APT*  PTSUNNY   41  41 100 S5        30.07S
$$

KYZ035-036-041-042-044-050-067-078-099-201000
...CENTRAL KENTUCKY...

CITY           SKY/WX    TMP DP  RH WIND       PRES   REMARKS
MT STERLING*   MOCLDY    41  39  93 SW5       30.06F
FLEMING/MASON* MOCLDY    42  40  93 S3        30.06S
DANVILLE*      PTCLDY    37  37 100 S5        30.07S WCI  34
RICHMOND*      PTCLDY    41  37  87 CALM      30.06S
LEXINGTON      CLOUDY    47  41  80 S6        30.05S
FRANKFORT      CLOUDY    44  41  89 CALM      30.05S
$$

KYZ091>093-OHZ055-061-077-WVZ005-015-034-035-042-201000
...SOUTHERN OHIO/WEST VIRGINIA...

CITY           SKY/WX    TMP DP  RH WIND       PRES   REMARKS
COVINGTON      CLOUDY    46  41  82 S6        30.02F
COLUMBUS       MOCLDY    44  38  79 CALM      30.02F
DAYTON         CLOUDY    48  41  76 S7        30.01F
WILMINGTON     CLOUDY    45  40  82 SW3       30.01F
HUNTINGTON     MOCLDY    39  38  96 E3        30.06S
CHARLESTON     PTCLDY    37  36  96 CALM      30.07S
PINEVILLE*     CLOUDY    37  37 100 MISG      30.13S FOG
BECKLEY        MOCLDY    37  33  85 E3        30.07R
BLUEFIELD      PTCLDY    48  31  51 CALM      30.07S
$$

VAZ002-007-008-TNZ017-027-036-066-071-201000
...SOUTHWEST VIRGINIA/EAST TENNESSEE...

CITY           SKY/WX    TMP DP  RH WIND       PRES   REMARKS
WISE*          MOCLDY    43  36  75 S7        30.08S
JONESVILLE*    PTSUNNY   39  39 100 CALM      30.11F
ABINGDON*      MOCLDY    41  39  91 CALM      30.09S
BRISTOL        CLOUDY    39  38  96 CALM      30.10S
KNOXVILLE      CLOUDY    47  45  93 CALM      30.08S
OAK RIDGE      CLOUDY    46  43  89 VRB3      30.10F
CROSSVILLE     MOCLDY    45  41  86 CALM      30.08R
NASHVILLE      PTCLDY    46  44  93 CALM      30.07S
$$

...KEY TO REMARKS...
VSB - VISIBILITY IN MILES
WCI - WIND CHILL INDEX
HX  - HEAT INDEX

$$



USA.gov is the U.S. government's official web portal to all federal, state and local government web resources and services.